RH
47 56 48 53 61 65 63 92 96 77 69 67 48 41 47 46 42 44 45 52 59 56 61 76 89 86 66 54 50 46 42 38 33 34 37 37 34 35 35 35 32 32 30 28 27
42 39 38 43 52 59 69 76 77 84 66 45 43 39 54 50 54 56 59 68 73 79 91 92 80 68 51 41 38 36 40 33 33 33 32 34 33 32 33 32 30 30 29 30 33
53 48 46 51 56 49 47 48 46 56 58 54 48 49 50 46 51 57 61 72 79 89 96 98 92 76 52 42 38 39 39 43 48 50 47 40 29 28 32 43 34 32 28 29 29
97 80 66 58 60 61 49 50 45 51 59 56 51 57 58 59 60 60 63 66 78 97 98 74 57 52 48 46 44 40 40 35 46 45 39 36 52 38 34 40 35 38 47 42 34
97 100 100 96 92 86 76 71 73 72 64 66 66 68 64 66 72 77 86 94 87 94 85 68 68 56 47 36 35 48 48 35 30 34 32 33 33 41 46 38 39 40 42 39 36
77 71 78 90 92 100 100 100 89 84 84 86 88 84 92 96 93 86 88 89 91 93 96 92 74 63 51 40 51 49 48 42 33 32 34 35 35 38 42 34 33 32 31 30 24
75 62 63 58 71 85 82 92 100 96 89 94 95 86 89 97 95 91 88 86 85 79 79 68 70 54 62 64 49 54 44 43 41 36 34 31 35 37 33 30 28 26 23 21 19
86 89 61 64 78 72 53 58 65 72 73 82 80 77 71 75 79 76 72 73 82 85 75 62 57 55 54 51 57 64 44 52 35 31 31 30 29 27 26 23 22 19 17 17 18
78 87 75 78 57 64 73 72 64 70 52 63 69 64 71 74 71 63 61 65 65 70 69 66 56 53 57 60 50 50 36 44 43 34 28 22 21 18 17 17 17 16 13 16 16
56 73 89 86 84 66 58 55 62 71 71 65 57 61 58 55 62 68 64 57 58 61 55 62 63 56 48 47 47 43 44 54 48 37 28 18 15 14 15 15 15 14 16 15 13
51 49 57 61 79 84 82 68 70 70 60 53 53 66 55 49 52 47 48 47 47 61 63 65 57 52 52 51 41 52 60 60 46 28 18 14 17 13 14 17 14 15 14 14 19
61 40 43 43 50 52 53 67 73 67 60 54 63 64 49 45 50 46 48 54 58 65 74 68 56 47 48 46 54 58 68 61 32 21 14 12 15 15 16 16 15 15 18 22 23
30 40 43 45 52 46 53 48 46 47 56 60 55 49 46 44 52 50 50 58 55 53 54 52 48 54 52 64 64 58 54 33 18 13 12 13 16 16 16 16 16 20 23 30 30
28 31 27 30 47 50 42 38 39 43 37 42 43 44 41 44 42 39 42 41 38 40 46 51 53 53 49 51 51 40 27 14 12 12 14 14 16 16 15 16 21 31 41 41 53
12 12 12 18 20 22 34 42 38 39 51 39 40 48 54 57 39 32 34 39 42 41 43 52 56 56 62 50 35 27 15 13 12 14 14 14 17 15 20 24 35 51 58 67 67
8 8 9 9 12 16 20 22 30 40 29 33 29 32 40 42 44 38 34 35 34 31 28 32 39 36 33 31 22 14 13 12 16 15 14 17 16 22 28 45 66 65 62 66 76
8 8 8 8 10 11 13 19 18 20 24 26 27 30 30 40 35 31 25 29 22 22 25 26 28 26 22 18 13 12 12 13 14 16 16 16 23 30 44 66 57 52 63 84 91
9 9 10 10 10 10 10 10 11 14 15 20 22 21 21 23 21 18 17 17 17 18 17 18 19 16 14 13 12 11 12 13 14 17 15 23 26 41 66 54 54 74 87 79 73
12 12 11 12 12 13 10 11 11 12 13 13 14 17 16 17 17 15 17 17 15 15 14 15 14 13 13 11 11 13 13 12 16 15 19 23 35 65 51 50 73 90 80 71 69
12 14 14 16 15 16 12 11 12 13 13 13 12 10 9 10 9 10 10 11 12 11 11 12 12 13 12 12 13 14 12 12 12 17 19 26 61 55 48 69 80 80 81 64 35
11 11 17 15 16 15 14 12 12 13 15 15 16 13 10 8 7 8 8 8 10 9 10 11 12 11 11 12 13 11 10 11 15 17 18 44 49 42 65 83 84 84 68 32 49
9 11 12 13 14 15 15 10 12 14 16 16 16 15 13 13 12 10 8 8 9 9 9 11 12 10 12 12 11 10 11 16 17 17 36 43 39 57 81 87 83 74 44 46 94
10 10 11 11 12 15 13 13 13 14 17 16 14 14 15 15 13 12 11 10 9 9 10 12 11 12 12 10 10 11 15 17 12 27 28 36 58 84 92 91 85 58 54 100 94
8 9 11 11 12 12 13 13 15 16 16 16 15 16 17 18 16 12 12 11 10 11 11 12 12 12 9 10 12 15 17 14 23 23 32 56 89 96 91 92 72 48 100 100 91
10 10 12 12 13 13 13 15 16 17 17 17 18 18 17 16 12 12 10 11 12 13 13 13 14 10 9 12 17 18 14 21 22 33 61 86 92 91 90 79 61 69 100 100 84
12 10 9 11 12 12 13 15 18 17 17 19 19 18 16 13 11 12 11 13 15 14 14 15 12 10 11 16 16 15 20 21 23 42 71 98 95 90 75 70 52 100 100 98 83
11 10 8 10 12 13 14 16 18 18 19 19 19 17 15 13 12 12 14 18 16 16 15 14 11 10 14 15 14 20 24 26 45 65 95 94 88 80 69 61 44 100 100 100 93
Wind_Speed
53 53 53 55 59 60 60 67 69 67 64 66 64 59 56 53 53 52 52 53 53 53 54 55 56 58 57 56 55 55 56 57 57 57 59 62 64 64 67 69 68 71 70 74 72
58 57 57 56 58 60 61 66 71 71 66 63 64 59 57 57 56 57 59 59 59 60 62 62 62 63 62 61 61 60 63 64 66 67 68 69 71 71 72 74 76 74 74 73 74
62 62 62 61 60 60 61 61 61 65 67 67 62 63 64 63 62 64 65 66 65 67 68 68 69 68 67 67 68 68 73 75 76 75 74 74 73 74 74 73 75 75 78 77 76
71 70 70 69 68 67 64 66 67 66 66 66 67 68 68 68 69 69 69 69 71 72 73 75 74 72 72 72 72 70 77 77 80 80 80 77 74 72 71 72 75 74 75 78 81
80 78 77 76 76 75 74 74 74 73 72 72 71 73 74 74 75 75 75 76 78 79 80 81 81 78 75 75 76 78 82 82 78 76 77 77 78 76 80 80 79 81 82 83 85
90 88 84 83 82 82 82 83 81 81 79 79 78 78 78 80 81 81 81 82 84 84 85 85 83 83 83 84 83 83 86 88 83 81 79 82 82 82 88 87 90 91 88 90 92
97 96 94 91 91 89 88 86 86 87 87 85 86 85 86 85 85 84 85 86 87 88 87 85 85 85 85 88 87 87 87 91 87 88 89 89 88 90 92 92 93 94 93 93 92
103 104 102 100 98 96 97 95 93 93 92 91 91 90 90 91 91 90 89 89 90 91 90 89 88 89 89 89 89 92 89 90 87 89 92 93 92 94 93 93 93 92 90 88 84
103 107 107 106 106 102 103 102 100 101 100 97 96 95 95 95 95 95 93 93 93 93 92 93 92 93 92 92 92 94 94 91 94 94 97 95 95 91 91 86 86 84 76 72 70
106 107 106 107 110 110 107 107 107 105 104 104 101 101 100 99 100 100 99 98 98 97 96 97 96 95 95 96 95 95 95 95 95 97 98 94 90 85 83 78 75 69 66 63 62
112 114 110 109 107 106 108 111 111 109 112 110 107 106 106 105 104 104 106 105 105 103 101 99 100 100 102 98 95 95 96 98 100 97 91 87 83 79 72 65 61 56 54 54 51
119 118 114 114 112 111 110 110 110 111 110 113 111 112 111 109 109 108 108 108 108 108 104 105 104 101 97 96 95 95 99 102 98 95 84 77 72 67 60 53 49 48 45 45 46
110 114 116 117 115 115 113 112 112 113 111 112 109 112 112 110 110 106 107 106 106 106 108 108 105 99 97 99 100 101 97 99 91 80 72 64 62 52 48 43 44 41 39 38 39
105 105 109 112 114 119 117 116 113 118 115 115 117 116 111 108 106 104 103 102 102 101 100 101 101 99 98 98 96 92 90 81 74 65 60 52 52 39 40 40 37 35 34 34 34
100 100 100 103 102 104 112 117 116 106 114 112 111 111 112 113 109 110 111 109 104 104 106 103 99 98 98 98 92 85 75 70 63 55 50 44 40 37 36 33 31 32 32 33 35
87 89 94 94 95 96 97 94 108 111 103 107 104 108 109 103 107 104 104 105 106 100 93 92 88 85 85 80 77 71 69 61 52 47 42 34 34 32 29 28 30 32 32 32 32
81 81 81 80 83 89 95 96 95 93 94 97 97 99 99 101 98 95 90 88 88 82 78 73 68 70 63 65 63 63 58 49 45 39 31 31 30 27 26 29 29 28 28 27 30
73 73 70 69 71 70 75 82 87 88 88 91 91 90 89 92 90 87 80 76 72 65 60 57 52 51 55 56 56 53 48 42 36 31 29 28 26 24 26 27 24 23 25 28 32
72 70 68 67 68 69 66 62 64 69 71 79 83 87 86 86 82 77 78 77 69 55 48 49 45 46 49 48 47 45 38 38 31 31 27 25 23 23 24 22 20 24 26 30 32
70 71 71 73 73 70 63 57 57 58 61 68 75 73 71 72 74 72 70 68 59 51 47 45 40 42 43 43 41 35 37 33 30 29 23 21 22 22 20 17 18 22 26 29 28
73 72 75 73 72 68 62 56 54 52 52 54 55 59 62 64 63 62 61 55 51 43 38 37 38 39 39 37 32 30 32 28 27 23 19 20 21 17 15 13 18 22 23 21 20
69 70 73 70 68 65 61 55 49 45 46 49 49 50 53 55 54 52 49 43 40 34 34 34 37 36 33 32 28 30 27 26 23 18 17 19 18 13 11 12 18 18 19 17 11
62 64 67 68 65 62 59 52 48 44 43 44 47 48 47 45 42 42 35 33 31 30 33 32 34 30 29 26 28 27 24 23 18 17 18 17 13 11 9 12 15 13 13 9 12
53 58 61 63 61 59 53 47 42 42 42 42 42 40 38 37 37 31 28 29 28 30 30 30 28 26 24 23 24 23 21 19 16 14 14 13 12 8 9 11 11 8 14 19 10
45 49 54 53 54 53 49 43 39 36 38 40 37 33 33 35 32 27 26 27 28 30 27 27 25 24 22 23 22 22 19 16 14 14 15 14 11 8 9 9 7 9 29 27 16
41 44 49 51 51 50 45 39 37 35 33 31 29 28 32 31 26 25 26 27 28 26 26 26 26 23 23 22 21 20 17 16 16 16 15 13 10 8 10 9 7 32 31 23 17
40 38 43 46 46 46 43 40 35 33 30 28 26 28 31 28 25 27 27 27 26 27 27 27 25 24 23 23 20 18 17 17 16 16 14 13 10 11 12 11 13 36 30 27 14
Wind_Direction
269 268 268 267 267 265 263 258 258 258 260 267 272 274 272 271 274 275 276 277 279 280 282 285 288 288 287 286 287 287 290 287 285 284 280 280 278 277 277 275 275 272 273 275 274
269 269 269 269 267 264 262 260 260 261 264 268 271 270 269 272 272 274 276 278 281 283 286 288 288 287 287 288 290 291 291 287 288 287 287 286 284 282 280 280 278 277 274 273 271
267 267 265 266 268 268 265 264 265 262 263 266 268 270 270 270 272 275 277 280 281 283 285 285 286 287 288 292 292 295 297 295 293 292 291 289 289 285 283 283 282 279 275 272 270
262 262 263 265 265 264 262 263 265 265 264 266 266 269 269 271 274 275 275 278 279 281 282 283 285 287 288 291 294 296 299 296 294 292 291 289 289 290 284 280 279 277 274 273 270
263 261 260 260 260 262 262 261 262 263 264 264 265 266 269 270 270 272 274 275 277 279 281 284 285 286 288 289 292 292 298 300 294 292 291 292 288 287 284 282 281 279 275 271 269
265 263 261 260 260 261 262 263 263 264 263 265 266 266 267 269 270 271 272 274 276 278 280 282 284 287 287 289 292 292 296 299 294 294 294 292 290 285 281 281 278 279 275 273 272
264 264 263 261 260 261 261 261 264 266 264 264 265 266 266 268 270 272 273 274 276 278 279 281 284 285 287 287 289 290 292 296 293 292 292 289 289 286 282 278 278 279 277 277 277
261 262 261 261 263 262 262 262 262 263 264 265 266 267 267 268 269 271 273 275 275 277 279 281 283 284 286 287 289 290 292 294 292 291 290 288 290 286 281 280 281 282 281 279 278
259 258 258 260 260 260 263 263 263 265 265 266 267 266 268 269 271 272 274 276 276 277 279 280 282 286 287 288 289 290 291 292 292 292 291 287 288 286 285 282 281 282 281 277 275
257 258 258 259 260 260 260 262 264 265 265 266 267 268 268 268 271 273 275 275 276 277 279 281 282 285 288 288 290 289 290 291 292 292 290 290 289 287 283 282 282 282 279 276 274
259 257 258 258 259 261 262 262 262 261 263 264 265 267 268 268 270 273 275 276 276 276 277 279 282 284 287 289 289 290 290 292 292 290 290 290 290 286 284 283 282 279 277 275 274
258 260 260 258 259 261 262 262 261 263 265 265 265 266 267 268 269 270 272 274 274 275 277 279 281 284 286 288 290 293 292 291 291 290 290 290 286 285 283 283 278 274 274 275 273
263 262 264 262 260 261 262 262 263 264 264 264 266 267 269 269 270 271 272 273 275 277 278 279 281 285 288 288 290 292 292 292 289 290 291 286 283 284 282 276 272 275 276 273 269
266 263 266 267 264 261 263 265 266 266 267 265 267 268 269 272 272 272 273 274 276 277 277 279 282 284 287 288 290 289 291 288 286 289 286 285 282 281 277 273 274 277 273 271 269
271 269 270 267 269 264 264 267 268 271 268 268 269 270 271 270 271 273 274 274 276 279 280 280 282 284 286 287 287 285 284 285 287 286 284 284 275 274 270 273 275 272 271 266 265
275 274 271 270 268 267 266 267 267 267 271 269 270 271 272 272 271 272 275 276 276 278 279 280 281 283 285 284 282 280 280 283 284 283 282 275 271 270 272 273 269 264 262 263 269
277 277 275 272 272 268 267 266 267 267 268 268 271 271 272 274 276 274 276 276 278 278 282 280 281 279 279 278 276 276 277 282 280 281 274 270 266 268 271 266 260 260 267 274 281
279 276 277 276 275 269 264 265 264 265 267 266 268 269 272 273 273 274 277 277 275 282 281 282 276 273 273 270 271 273 276 277 278 275 269 266 267 266 263 258 258 271 275 280 279
276 276 272 274 274 274 264 261 263 264 265 264 265 269 269 270 271 274 274 275 278 278 281 273 272 265 267 267 270 273 274 272 270 269 264 263 264 258 258 259 270 275 281 283 291
267 270 271 272 271 273 267 260 260 261 261 262 264 266 267 267 268 269 270 272 275 276 270 270 263 258 262 265 269 270 267 266 267 263 261 261 255 254 260 273 279 279 284 294 302
266 263 265 265 266 265 264 260 257 256 257 258 261 263 265 266 266 269 268 269 272 267 261 259 255 254 258 263 263 260 260 261 259 255 259 256 251 256 268 275 275 283 296 305 308
264 261 258 258 259 260 260 256 254 255 254 255 258 260 262 265 267 266 266 268 262 254 250 247 248 252 255 258 254 252 253 253 251 252 251 248 253 259 264 272 283 301 308 314 263
260 258 256 255 255 256 256 255 253 247 248 251 252 257 263 267 266 265 262 255 245 242 238 239 243 247 252 252 247 245 245 244 246 247 239 241 249 246 266 281 292 305 303 205 232
261 256 252 252 251 252 251 249 248 244 244 248 250 257 263 264 259 259 247 242 234 230 228 231 235 239 241 238 236 238 237 238 240 239 240 238 235 246 265 273 282 300 184 191 186
258 249 247 247 245 245 245 244 241 240 243 245 247 253 259 256 256 244 234 227 222 218 219 223 226 230 230 227 225 230 229 227 226 227 228 228 231 241 246 258 262 198 184 174 194
264 253 244 241 239 238 238 237 236 236 240 242 244 246 251 249 242 228 217 212 209 211 212 216 221 221 220 216 218 222 223 222 218 216 219 227 226 229 233 218 199 176 182 197 219
263 253 247 239 236 232 231 231 231 236 237 234 238 242 246 239 225 213 204 202 205 206 208 210 213 214 211 210 211 215 214 214 214 215 208 214 212 223 224 204 185 186 195 185 195